| 
				
				
				
					
						
					 | 
				
				
				
					
					
					Asteroid 2011 MF
					
					
					
					
						
					
					
						
							(Preview)
						
						
						
						
							
						
							
								Orbital elements:
2011 MF                                                  Earth MOID = 0.1087 AU
Epoch 2011 Aug. 27.0 TT = JDT 2455800.5                 MPC
M  16.27762              (2000.0)            P               Q
n   0.31618927     Peri.  188.97512     +0.32699824     +0.93331460
a   2.1338864      Node   100.21790     -0.85742329     +0.35899905
e   0.4733715      Incl.    8.66753     -0.39736312     -0.00659829
P   3.12           H   22.6           G   0.... 
							 
							
						 
						
					
				 | 
				
					
						Blobrana
					 | 
				
				
					
						1
					 | 
				
				
				
					
						
					 | 
				
				
					
						
					 | 
				
			
		
			
			
				
				
					
						 
					 | 
				
				
				
					
						
					 | 
				
				
				
					
					
					Asteroid 2011 ME
					
					
					
					
						
					
					
						
							(Preview)
						
						
						
						
							
						
							
								Orbital elements:
2011 ME                                                  Earth MOID = 0.2989 AU
Epoch 2011 Aug. 27.0 TT = JDT 2455800.5                 MPC
M   0.73607              (2000.0)            P               Q
n   0.65424815     Peri.  167.71571     +0.73810377     -0.59167989
a   1.3141382      Node   233.46478     +0.57983136     +0.80198880
e   0.7145068      Incl.   23.79795     +0.34496148     -0.08202975
P   1.51           H   19.5           G   0.... 
							 
							
						 
						
					
				 | 
				
					
						Blobrana
					 | 
				
				
					
						0
					 | 
				
				
				
					
						
					 | 
				
				
					
						
					 | 
				
			
		
			
			
				
				
					
						 
					 | 
				
				
				
					
						
					 | 
				
				
				
					
					
					Asteroid 2011 MC
					
					
					
					
						
					
					
						
							(Preview)
						
						
						
						
							
						
							
								Orbital elements:
2011 MC                                                  Earth MOID = 0.0719 AU
Epoch 2011 Aug. 27.0 TT = JDT 2455800.5                 MPC
M   6.11658              (2000.0)            P               Q
n   0.24403455     Peri.  225.34014     +0.66995411     +0.61377907
a   2.5361124      Node    91.96748     -0.50592033     +0.78917162
e   0.6134188      Incl.   24.70224     -0.54332873     +0.02198640
P   4.04           H   21.5           G   0.1... 
							 
							
						 
						
					
				 | 
				
					
						Blobrana
					 | 
				
				
					
						1
					 | 
				
				
				
					
						
					 | 
				
				
					
						
					 | 
				
			
		
			
			
				
				
					
						 
					 | 
				
				
				
					
						
					 | 
				
				
				
					
					
					Asteroid (65909) 1998 FH12
					
					
					
					
						
					
					
						
							(Preview)
						
						
						
						
							
						
							
								The 400 - 900 metre wide asteroid 1998 FH12 will make a close pass (53.7 lunar distances, 0.1379 AU), travelling at 20.98 km/second, to the Earth-Moon system on the 23rd June, 2011 @ 11:56 UT ±00:01.   See more  The Lunar Distance (LD), the distance between Earth and the Moon, equals 384,401 km, (or 0.002...  
							 
							
						 
						
					
				 | 
				
					
						Blobrana
					 | 
				
				
					
						0
					 | 
				
				
				
					
						
					 | 
				
				
					
						
					 | 
				
			
		
			
			
				
				
					
						 
					 | 
				
				
				
					
						
					 | 
				
				
				
					
					
					Asteroid (474) Prudentia
					
					
					
					
						
					
					
						
							(Preview)
						
						
						
						
							
						
							
								Title: Occultazione asteroidale di 474 Prudentia su HIP 1927 con pre-pointing Authors: Costantino Sigismondi  An asteroidal occultation of a 8.5 V magnitude star can be difficult to be observed without an automatic pointing system. It was the case of 474 Prudentia occulting HIP 1927 on 5 Septembe... 
							 
							
						 
						
					
				 | 
				
					
						Blobrana
					 | 
				
				
					
						0
					 | 
				
				
				
					
						
					 | 
				
				
					
						
					 | 
				
			
		
			
			
				
				
					
						 
					 | 
				
				
				
					
						
					 | 
				
				
				
					
					
					Asteroid 2010 XO56
					
					
					
					
						
					
					
						
							(Preview)
						
						
						
						
							
						
							
								The 230 - 510 metre wide asteroid 2010 XO56 will make a close pass (70.1 lunar distances, 0.1802 AU), travelling at 19.72 km/second, to the Earth-Moon system on the 22nd June, 2011 @ 15:18 UT ±00:01.   See more  The Lunar Distance (LD), the distance between Earth and the Moon, equals 384,401 km, (or 0.002...  
							 
							
						 
						
					
				 | 
				
					
						Blobrana
					 | 
				
				
					
						0
					 | 
				
				
				
					
						
					 | 
				
				
					
						
					 | 
				
			
		
			
			
				
				
					
						 
					 | 
				
				
				
					
						
					 | 
				
				
				
					
					
					Asteroid 2008 GH110
					
					
					
					
						
					
					
						
							(Preview)
						
						
						
						
							
						
							
								Orbital elements:
2008 GH110                                               Earth MOID = 0.0609 AU
Epoch 2011 Aug. 27.0 TT = JDT 2455800.5                 MPC
M 215.63880              (2000.0)            P               Q
n   0.68641818     Peri.  248.64106     -0.02794431     -0.97649896
a   1.2727512      Node   205.94000     +0.99759704     -0.04080214
e   0.2807512      Incl.   29.24480     -0.06339766     -0.21162458
P   1.44           H   19...                                  
							 
							
						 
						
					
				 | 
				
					
						Blobrana
					 | 
				
				
					
						0
					 | 
				
				
				
					
						
					 | 
				
				
					
						
					 | 
				
			
		
			
			
				
				
					
						 
					 | 
				
				
				
					
						
					 | 
				
				
				
					
					
					Asteroid 2011 HO
					
					
					
					
						
					
					
						
							(Preview)
						
						
						
						
							
						
							
								The 330 - 730 metre wide asteroid 2011 HO will make a close pass (70.5 lunar distances, 0.1812 AU), travelling at 9.38 km/second, to the Earth-Moon system on the 21st June, 2011 @ 15:18 UT ±00:01.   See more  The Lunar Distance (LD), the distance between Earth and the Moon, equals 384,401 km, (or 0.00256 A... 
							 
							
						 
						
					
				 | 
				
					
						Blobrana
					 | 
				
				
					
						0
					 | 
				
				
				
					
						
					 | 
				
				
					
						
					 | 
				
			
		
			
			
				
				
					
						 
					 | 
				
				
				
					
						
					 | 
				
				
				
					
					
					Asteroid 2005 XN4
					
					
					
					
						
					
					
						
							(Preview)
						
						
						
						
							
						
							
								Orbital elements:
2005 XN4                                                 Earth MOID = 0.1518 AU
Epoch 2011 Aug. 27.0 TT = JDT 2455800.5                 MPC
M  49.40405              (2000.0)            P               Q
n   0.38305470     Peri.   93.60033     -0.51933851     -0.29781998
a   1.8777115      Node    70.74065     -0.23138640     -0.85328925
e   0.5813912      Incl.   58.04657     +0.82264685     -0.42801952
P   2.57           H   19.8           G   0.... 
							 
							
						 
						
					
				 | 
				
					
						Blobrana
					 | 
				
				
					
						1
					 | 
				
				
				
					
						
					 | 
				
				
					
						
					 | 
				
			
		
			
			
				
				
					
						 
					 | 
				
				
				
					
						
					 | 
				
				
				
					
					
					Asteroid (23258) Tsuihark
					
					
					
					
						
					
					
						
							(Preview)
						
						
						
						
							
						
							
								Fantasy film Hong Kong director Tsui Hark has another accolade to add to his trove of honours: the International Astronomical Union has authorized the naming of an asteroid 3.5 billion kilometres from Earth after him. 23258 Tsuihark (2000 YY21) is a main-belt asteroid located between Mars and Sat... 
							 
							
						 
						
					
				 | 
				
					
						Blobrana
					 | 
				
				
					
						0
					 | 
				
				
				
					
						
					 | 
				
				
					
						
					 | 
				
			
		
			
			
				
				
					
						 
					 | 
				
				
				
					
						
					 | 
				
				
				
					
					
					Asteroid 2002 NN4
					
					
					
					
						
					
					
						
							(Preview)
						
						
						
						
							
						
							
								The 270 - 600 metre wide asteroid 2002 NN4 will make a close pass (63.0 lunar distances, 0.1619 AU), travelling at 8.95 km/second, to the Earth-Moon system on the 18th June, 2011 @ 18:03 UT ±00:01.   See more  The Lunar Distance (LD), the distance between Earth and the Moon, equals 384,401 km, (or 0.00256...  
							 
							
						 
						
					
				 | 
				
					
						Blobrana
					 | 
				
				
					
						0
					 | 
				
				
				
					
						
					 | 
				
				
					
						
					 | 
				
			
		
			
			
				
				
					
						 
					 | 
				
				
				
					
						
					 | 
				
				
				
					
					
					TNO 2010 LQ68
					
					
					
					
						
					
					
						
							(Preview)
						
						
						
						
							
						
							
								Asteroid 2010 LQ68Orbital elements:
2010 LQ68
Epoch 2011 Aug. 27.0 TT = JDT 2455800.5                 MPC
M 314.51307              (2000.0)            P               Q
n   0.00327493     Peri.   12.65573     +0.75279284     +0.65671469
a  44.9091574      Node   306.20115     -0.60869970     +0.66843910
e   0.2249657      Incl.    3.19976     -0.25057458     +0.34916325
P 301              H    7.6           G   0.1... 
							 
							
						 
						
					
				 | 
				
					
						Blobrana
					 | 
				
				
					
						0
					 | 
				
				
				
					
						
					 | 
				
